Hourly Data Report for October 09, 2015

All times are specified in Local Standard Time (LST). Add 1 hour to adjust for Daylight Saving Time where and when it is observed.

IQALUIT CLIMATE
NUNAVUT

63°44'50.000" N
68°32'40.000" W
33.50 m
2402592
71321
XFB

Download Data

Hourly Data (October 2015)
Hourly Data Report for October 9, 2015
Temp Definition
°C
Dew Point Temp Definition
°C
Rel Hum Definition
%
Wind Dir Definition
10's deg

Wind Spd Definition
km/h
Visibility Definition
km
Stn Press Definition
kPa
Hmdx Definition


Wind Chill Definition


Weather Definition


TIME
00:00 -2.9 -5.9 80 34 14   100.16   -8 LegendNANA
01:00 -3.1 -6.3 78 2 11   100.14   -7 LegendNANA
02:00 -3.2 -6.3 79 2 9   100.12   -7 LegendNANA
03:00 -3.7 -6.7 79 5 15   100.10   -9 LegendNANA
04:00 -4.4 -7.2 81 5 15   100.09   -10 LegendNANA
05:00 -6.3 -8.3 86 36 12   100.06   -11 LegendNANA
06:00 -7.3 -9.8 82 35 13   100.03   -13 LegendNANA
07:00 -7.6 -9.8 84 32 14   99.98   -14 LegendNANA
08:00 -6.2 -9.5 78 34 6   99.93   -9 LegendNANA
09:00 -5.0 -8.5 77 32 5   99.88   -7 LegendNANA
10:00 -4.5 -8.3 74 32 4   99.83   -6 LegendNANA
11:00 -3.9 -7.8 74 30 3   99.81   -5 LegendNANA
12:00 -3.1 -7.2 73 25 3   99.77   -4 LegendNANA
13:00 -3.0 -6.7 76 29 3   99.74   -4 LegendNANA
14:00 -3.0 -6.3 78 28 5   99.70   -5 LegendNANA
15:00 -2.6 -5.7 79 30 5   99.62   -5 LegendNANA
16:00 -2.7 -5.0 85 32 4   99.58   -4 LegendNANA
17:00 -2.8 -4.5 88 32 7   99.53   -6 LegendNANA
18:00 -2.2 -4.3 85 3 7   99.48   -5 LegendNANA
19:00 -2.4 -4.2 88 33 5   99.43   -4 LegendNANA
20:00 -2.3 -4.6 84 33 5   99.36   -4 LegendNANA
21:00 -2.3 -4.6 84 34 5   99.29   -4 LegendNANA
22:00 -2.2 -4.4 85 33 6   99.23   -5 LegendNANA
23:00 -2.0 -4.0 86 33 10   99.17   -6 LegendNANA

Notes on Data Quality.

Legend

  • E = Estimated
  • M = Missing
  • NA = Not Available
  • ‡ = Partner data that is not subject to review by the National Climate Archives
Date modified: